When you browse on this site, cookies collect data to enhance your experience and personalize the content and advertising you see.
Visit our Privacy Policy to learn more. By continuing to use the site, you agree to this use of cookies and data.
  • In Romania
  • List of Countries
  • For 7 days
  • Water Temperature
  • Weather Map
  • Weather Widgets
  • user-avatar
    Login

    Hourly Weather Cayenne

    Today, 14 November, Thursday

    Time Temperature Precipitation Wind Pressure Humidity
    00:00 +27°C° 0 mm 2 mps 756 mmHg 90%
    01:00 +27°C° 0 mm 3 mps 756 mmHg 91%
    02:00 +27°C° 0 mm 3 mps 755 mmHg 91%
    03:00 +27°C° 0 mm 3 mps 755 mmHg 91%
    04:00 +27°C° 0 mm 3 mps 755 mmHg 91%
    05:00 +27°C° 0 mm 3 mps 755 mmHg 92%
    06:00 +27°C° 0 mm 3 mps 755 mmHg 92%
    07:00 +28°C° 0 mm 3 mps 756 mmHg 84%
    08:00 +30°C° 0 mm 3 mps 757 mmHg 76%
    09:00 +33°C° 0 mm 3 mps 757 mmHg 67%
    10:00 +34°C° 0 mm 3 mps 757 mmHg 62%
    11:00 +35°C° 0 mm 3 mps 757 mmHg 56%
    12:00 +36°C° 0 mm 4 mps 757 mmHg 51%
    13:00 +36°C° 0 mm 4 mps 756 mmHg 50%
    14:00 +36°C° 0 mm 4 mps 755 mmHg 50%
    15:00 +35°C° 0 mm 4 mps 754 mmHg 49%
    16:00 +34°C° 0 mm 4 mps 754 mmHg 57%
    17:00 +31°C° 0 mm 3 mps 754 mmHg 64%
    18:00 +30°C° 0 mm 3 mps 755 mmHg 72%
    19:00 +29°C° 0 mm 3 mps 755 mmHg 76%
    20:00 +28°C° 0 mm 3 mps 756 mmHg 80%
    21:00 +28°C° 0 mm 3 mps 756 mmHg 84%
    22:00 +27°C° 0 mm 3 mps 756 mmHg 86%
    23:00 +27°C° 0 mm 3 mps 756 mmHg 88%

    Tomorrow, 15 November, Friday

    Time Temperature Precipitation Wind Pressure Humidity
    00:00 +27°C° 0 mm 3 mps 756 mmHg 91%
    01:00 +27°C° 0 mm 3 mps 755 mmHg 92%
    02:00 +27°C° 0 mm 3 mps 755 mmHg 93%
    03:00 +26°C° 0 mm 3 mps 754 mmHg 94%
    04:00 +27°C° 0 mm 3 mps 754 mmHg 92%
    05:00 +27°C° 0 mm 3 mps 755 mmHg 91%
    06:00 +27°C° 0 mm 3 mps 755 mmHg 89%
    07:00 +29°C° 0 mm 3 mps 756 mmHg 81%
    08:00 +30°C° 0 mm 3 mps 756 mmHg 73%
    09:00 +33°C° 0 mm 3 mps 756 mmHg 65%
    10:00 +34°C° 0 mm 3 mps 756 mmHg 60%
    11:00 +35°C° 0 mm 3 mps 756 mmHg 55%
    12:00 +36°C° 0 mm 3 mps 756 mmHg 51%
    13:00 +36°C° 0 mm 3 mps 755 mmHg 52%
    14:00 +35°C° 0 mm 4 mps 754 mmHg 53%
    15:00 +35°C° 0 mm 4 mps 753 mmHg 54%
    16:00 +34°C° 0.1 mm 4 mps 753 mmHg 61%
    17:00 +32°C° 0.1 mm 4 mps 753 mmHg 68%
    18:00 +30°C° 0.1 mm 4 mps 753 mmHg 76%
    19:00 +29°C° 0 mm 4 mps 754 mmHg 78%
    20:00 +29°C° 0 mm 4 mps 754 mmHg 81%
    21:00 +28°C° 0 mm 4 mps 755 mmHg 83%
    22:00 +28°C° 0 mm 4 mps 755 mmHg 85%
    23:00 +27°C° 0 mm 3 mps 755 mmHg 87%

    Day after tomorrow, 16 November, Saturday

    Time Temperature Precipitation Wind Pressure Humidity
    00:00 +27°C° 0 mm 3 mps 755 mmHg 89%
    01:00 +27°C° 0 mm 3 mps 754 mmHg 91%
    02:00 +26°C° 0 mm 3 mps 754 mmHg 92%
    03:00 +26°C° 0 mm 3 mps 753 mmHg 93%
    04:00 +26°C° 0 mm 3 mps 753 mmHg 93%
    05:00 +26°C° 0 mm 3 mps 753 mmHg 92%
    06:00 +26°C° 0 mm 3 mps 754 mmHg 92%
    07:00 +28°C° 0 mm 3 mps 754 mmHg 83%
    08:00 +30°C° 0 mm 3 mps 754 mmHg 74%
    09:00 +33°C° 0 mm 4 mps 755 mmHg 64%
    10:00 +34°C° 0 mm 4 mps 755 mmHg 60%
    11:00 +35°C° 0 mm 4 mps 754 mmHg 56%
    12:00 +36°C° 0 mm 4 mps 754 mmHg 51%
    13:00 +35°C° 0 mm 4 mps 753 mmHg 52%
    14:00 +35°C° 0 mm 4 mps 753 mmHg 52%
    15:00 +35°C° 0 mm 4 mps 752 mmHg 53%
    16:00 +33°C° 0 mm 4 mps 752 mmHg 59%
    17:00 +32°C° 0 mm 4 mps 752 mmHg 66%
    18:00 +30°C° 0 mm 4 mps 752 mmHg 72%
    19:00 +29°C° 0 mm 4 mps 753 mmHg 75%
    20:00 +29°C° 0 mm 4 mps 753 mmHg 78%
    21:00 +28°C° 0 mm 4 mps 754 mmHg 80%
    22:00 +28°C° 0 mm 4 mps 754 mmHg 82%
    23:00 +28°C° 0 mm 4 mps 754 mmHg 83%

    17 November, Sunday

    Time Temperature Precipitation Wind Pressure Humidity
    00:00 +28°C° 0 mm 4 mps 753 mmHg 84%
    01:00 +28°C° 0.1 mm 4 mps 753 mmHg 85%
    02:00 +28°C° 0.1 mm 4 mps 753 mmHg 87%
    03:00 +27°C° 0.1 mm 4 mps 752 mmHg 88%
    04:00 +27°C° 0.3 mm 4 mps 752 mmHg 90%
    05:00 +27°C° 0.3 mm 4 mps 753 mmHg 91%
    06:00 +27°C° 0.3 mm 4 mps 753 mmHg 92%
    07:00 +28°C° 0.4 mm 4 mps 754 mmHg 89%
    08:00 +29°C° 0.4 mm 4 mps 754 mmHg 86%
    09:00 +30°C° 0.4 mm 4 mps 755 mmHg 82%
    10:00 +30°C° 1 mm 4 mps 755 mmHg 81%
    11:00 +32°C° 1 mm 4 mps 755 mmHg 79%
    12:00 +32°C° 1 mm 4 mps 754 mmHg 77%
    13:00 +33°C° 0.1 mm 5 mps 754 mmHg 69%
    14:00 +34°C° 0.1 mm 5 mps 753 mmHg 61%
    15:00 +35°C° 0.1 mm 5 mps 752 mmHg 53%
    16:00 +33°C° 0 mm 5 mps 752 mmHg 60%
    17:00 +32°C° 0 mm 4 mps 752 mmHg 67%
    18:00 +29°C° 0 mm 4 mps 753 mmHg 74%
    19:00 +29°C° 0 mm 4 mps 753 mmHg 79%
    20:00 +28°C° 0 mm 4 mps 753 mmHg 83%
    21:00 +28°C° 0 mm 4 mps 754 mmHg 87%
    22:00 +28°C° 0.1 mm 4 mps 754 mmHg 87%
    23:00 +28°C° 0.1 mm 4 mps 754 mmHg 88%

    18 November, Monday

    Time Temperature Precipitation Wind Pressure Humidity
    00:00 +28°C° 0.1 mm 4 mps 754 mmHg 88%
    01:00 +28°C° 0.2 mm 3 mps 754 mmHg 88%
    02:00 +28°C° 0.2 mm 3 mps 753 mmHg 88%
    03:00 +28°C° 0.2 mm 3 mps 753 mmHg 88%
    04:00 +27°C° 0.4 mm 3 mps 753 mmHg 91%
    05:00 +27°C° 0.4 mm 3 mps 754 mmHg 93%
    06:00 +26°C° 0.4 mm 3 mps 754 mmHg 95%
    07:00 +27°C° 0.6 mm 3 mps 755 mmHg 93%
    08:00 +28°C° 0.6 mm 3 mps 755 mmHg 90%
    09:00 +29°C° 0.6 mm 3 mps 756 mmHg 87%
    10:00 +30°C° 0.5 mm 3 mps 756 mmHg 78%
    11:00 +33°C° 0.5 mm 3 mps 756 mmHg 69%
    12:00 +34°C° 0.5 mm 3 mps 756 mmHg 61%
    13:00 +34°C° 0.2 mm 3 mps 755 mmHg 57%
    14:00 +35°C° 0.2 mm 3 mps 755 mmHg 53%
    15:00 +35°C° 0.2 mm 4 mps 754 mmHg 49%
    16:00 +33°C° 0.5 mm 3 mps 755 mmHg 59%
    17:00 +30°C° 0.5 mm 3 mps 755 mmHg 69%
    18:00 +28°C° 0.5 mm 3 mps 755 mmHg 79%
    19:00 +28°C° 0.4 mm 2 mps 755 mmHg 82%
    20:00 +27°C° 0.4 mm 2 mps 756 mmHg 84%
    21:00 +27°C° 0.4 mm 2 mps 756 mmHg 86%
    22:00 +26°C° 0.6 mm 2 mps 756 mmHg 88%
    23:00 +26°C° 0.6 mm 1 mps 756 mmHg 89%

    19 November, Tuesday

    Time Temperature Precipitation Wind Pressure Humidity
    00:00 +26°C° 0.6 mm 1 mps 756 mmHg 90%
    01:00 +26°C° 0 mm 1 mps 756 mmHg 91%
    02:00 +25°C° 0 mm 1 mps 755 mmHg 92%
    03:00 +25°C° 0 mm 1 mps 755 mmHg 93%
    04:00 +25°C° 0 mm 1 mps 755 mmHg 93%
    05:00 +25°C° 0 mm 1 mps 755 mmHg 94%
    06:00 +25°C° 0 mm 1 mps 755 mmHg 94%
    07:00 +27°C° 0.1 mm 2 mps 756 mmHg 85%
    08:00 +29°C° 0.1 mm 2 mps 756 mmHg 76%
    09:00 +31°C° 0.1 mm 2 mps 757 mmHg 67%
    10:00 +33°C° 0 mm 3 mps 757 mmHg 61%
    11:00 +34°C° 0 mm 3 mps 757 mmHg 56%
    12:00 +35°C° 0 mm 3 mps 757 mmHg 50%
    13:00 +35°C° 0 mm 3 mps 756 mmHg 52%
    14:00 +34°C° 0 mm 3 mps 755 mmHg 53%
    15:00 +34°C° 0 mm 3 mps 755 mmHg 55%
    16:00 +33°C° 0 mm 3 mps 755 mmHg 61%
    17:00 +31°C° 0 mm 3 mps 755 mmHg 67%
    18:00 +29°C° 0 mm 3 mps 755 mmHg 73%
    19:00 +29°C° 0 mm 3 mps 755 mmHg 77%
    20:00 +28°C° 0 mm 3 mps 755 mmHg 80%
    21:00 +27°C° 0 mm 3 mps 756 mmHg 84%
    22:00 +27°C° 0 mm 3 mps 756 mmHg 84%
    23:00 +27°C° 0 mm 3 mps 756 mmHg 85%
    Show more